User: anonymous   Login
Location: Columbia
(38.9520°N, 92.3340°W)
Time: 14:30:10
(UTC-06:00)
Language:

Cosmos 2219 Rocket - Orbit

View from above orbital plane
View from above orbital plane
View from above satellite
View from above satellite

Ground track
Ground track

The orbit data is extracted from the following two-line orbital elements,

1 22220U 92076B   15025.58403576 -.00000265  00000-0 -10934-3 0  5095
2 22220 071.0010 098.0392 0012085 174.9734 285.4396 14.16350682147073
Epoch (UTC): 25 January 2015 14:01:00
Eccentricity: 0.0012085
inclination: 71.0010°
perigee height: 829 km
apogee height: 846 km
right ascension of ascending node: 98.0392°
argument of perigee: 174.9734°
revolutions per day: 14.16350682
mean anomaly at epoch: 285.4396°
orbit number at epoch: 14707

The dashed part of the orbit path shows where the satellite is in the earth's shadow,  

DLR